Total_Precipitation_Accumulation
1.33 1.23 1.21 1.37 1.37 1.49 1.53 1.60 1.63 1.48 1.33 1.22 1.23 1.21 1.25 1.22 1.14 1.10 1.39 1.60 1.86 2.38 2.63 2.58 2.47 2.29 2.20 2.10 2.12 2.13 2.07 2.00 2.22 2.62 3.20 3.48 3.15 2.50 2.12 1.91 1.76 1.56 1.58
1.21 1.24 1.15 1.22 1.33 1.52 1.74 1.79 1.62 1.52 1.42 1.37 1.38 1.34 1.33 1.25 1.20 1.10 1.28 1.39 1.34 1.59 2.08 2.62 2.85 2.67 2.49 2.37 2.25 2.27 2.20 2.09 2.16 2.34 2.41 2.57 2.63 2.28 1.86 1.83 1.75 1.58 1.71
1.03 1.16 1.22 1.20 1.26 1.51 1.77 1.91 1.74 1.60 1.44 1.44 1.45 1.45 1.37 1.35 1.27 1.19 1.31 1.47 1.34 1.31 1.66 2.25 2.81 2.94 2.80 2.63 2.41 2.35 2.17 1.98 1.94 2.03 2.13 2.11 2.24 2.19 1.85 1.75 1.70 1.65 1.67
1.05 1.17 1.27 1.23 1.26 1.47 1.71 1.92 1.95 1.92 1.83 1.76 1.66 1.58 1.52 1.63 1.48 1.36 1.41 1.53 1.66 1.50 1.48 1.76 2.20 2.63 2.85 2.84 2.55 2.25 2.01 1.83 1.76 1.76 1.86 1.74 1.88 2.01 1.81 1.68 1.75 1.86 1.84
1.09 1.21 1.43 1.47 1.46 1.58 1.68 1.72 1.86 1.88 1.94 1.94 1.73 1.68 1.60 1.72 1.80 1.69 1.74 1.78 1.85 1.81 1.65 1.52 1.64 1.83 2.35 2.70 2.66 2.39 2.16 1.92 1.78 1.67 1.76 1.64 1.65 1.81 1.69 1.65 1.76 1.91 1.92
1.31 1.28 1.46 1.50 1.53 1.72 1.79 1.88 2.09 2.04 1.95 2.04 1.86 1.75 1.71 1.71 1.74 1.92 2.05 2.01 1.95 1.82 1.79 1.62 1.65 1.56 1.87 2.27 2.43 2.41 2.24 2.18 2.11 1.95 1.93 1.77 1.62 1.66 1.67 1.61 1.68 1.79 1.90
1.43 1.46 1.49 1.53 1.56 1.65 1.72 1.89 2.23 2.25 2.07 1.97 2.18 2.17 2.07 1.87 1.78 1.84 1.93 2.09 2.10 1.90 1.89 1.88 1.74 1.61 1.51 1.66 1.86 2.13 2.20 2.40 2.50 2.33 2.16 1.94 1.62 1.59 1.68 1.56 1.64 1.71 1.73
1.40 1.35 1.52 1.62 1.58 1.72 1.79 1.97 2.28 2.50 2.26 2.07 2.43 2.89 2.66 2.38 2.03 1.78 1.76 1.74 1.92 1.90 1.79 1.69 1.61 1.57 1.51 1.50 1.33 1.52 1.86 2.35 2.77 2.60 2.24 2.05 1.81 1.72 1.79 1.65 1.63 1.64 1.63
1.64 1.60 1.68 1.80 1.72 1.77 1.89 1.94 2.05 2.53 2.67 2.42 2.37 2.95 2.84 2.63 2.59 2.04 1.61 1.46 1.67 1.82 1.83 1.71 1.65 1.69 1.68 1.64 1.37 1.16 1.37 1.80 2.48 2.59 2.34 2.26 2.13 1.94 1.80 1.69 1.62 1.64 1.71
1.84 1.73 1.76 1.82 1.82 1.88 1.86 1.73 1.90 2.36 2.85 2.90 2.67 2.46 2.31 2.28 2.48 2.36 1.78 1.45 1.51 1.65 1.81 1.70 1.67 1.75 1.79 1.86 1.77 1.40 1.19 1.35 1.98 2.58 2.72 2.63 2.49 2.24 2.06 1.89 1.76 1.73 1.72
1.86 1.71 1.66 1.77 1.82 1.89 1.89 1.95 2.11 2.42 2.71 2.99 2.97 2.70 2.40 2.17 1.81 2.00 1.99 1.76 1.50 1.40 1.46 1.56 1.68 1.71 1.75 1.75 1.82 1.64 1.28 1.11 1.40 2.05 2.61 2.76 2.65 2.55 2.47 2.37 2.29 2.24 2.09
1.71 1.64 1.61 1.63 1.61 1.68 1.78 1.96 2.19 2.33 2.53 2.76 2.84 2.57 2.39 2.28 2.07 1.93 1.77 1.82 1.78 1.49 1.33 1.30 1.40 1.54 1.60 1.66 1.52 1.59 1.35 1.09 1.07 1.28 1.66 2.16 2.39 2.54 2.62 2.66 2.59 2.44 2.38
1.50 1.48 1.48 1.47 1.39 1.38 1.51 1.71 1.97 2.03 2.14 2.35 2.46 2.36 2.23 2.08 2.03 2.08 2.02 1.91 1.74 1.47 1.33 1.16 1.20 1.33 1.35 1.48 1.57 1.56 1.32 1.19 1.03 1.00 1.06 1.26 1.60 1.99 2.36 2.59 2.68 2.65 2.58
1.29 1.21 1.22 1.27 1.26 1.26 1.31 1.45 1.62 1.66 1.73 1.92 1.99 2.05 1.98 1.92 1.96 1.95 1.98 2.11 1.96 1.70 1.35 1.03 1.05 1.18 1.15 1.21 1.46 1.51 1.16 1.11 1.00 0.95 0.92 0.95 1.04 1.28 1.69 1.95 2.17 2.38 2.47
1.05 1.02 1.07 1.18 1.25 1.21 1.18 1.29 1.44 1.45 1.54 1.69 1.81 1.95 1.89 1.85 1.85 1.89 1.95 2.04 2.08 1.94 1.64 1.19 1.02 0.96 0.98 1.07 1.37 1.24 1.12 1.13 1.02 0.95 0.87 0.81 0.80 0.81 0.97 1.17 1.40 1.63 1.78
0.97 0.99 1.01 1.01 1.04 1.05 1.10 1.26 1.44 1.50 1.48 1.54 1.63 1.74 1.87 1.90 1.91 1.91 1.97 1.99 1.97 1.94 1.81 1.39 1.12 0.94 0.99 0.96 1.18 0.99 1.09 1.27 1.05 0.88 0.81 0.76 0.74 0.73 0.75 0.85 0.92 0.98 1.01
0.76 0.78 0.78 0.82 0.94 0.96 0.96 1.12 1.22 1.24 1.35 1.43 1.42 1.46 1.62 1.76 1.88 1.91 1.91 1.90 1.95 1.91 1.78 1.53 1.21 1.03 1.10 1.11 1.17 1.03 1.01 1.05 0.97 0.93 0.85 0.77 0.71 0.69 0.66 0.69 0.70 0.68 0.68
0.53 0.60 0.66 0.65 0.84 1.01 1.04 1.07 1.07 1.05 1.17 1.26 1.28 1.34 1.40 1.42 1.54 1.69 1.78 1.76 1.84 1.89 1.85 1.75 1.46 1.22 1.20 1.26 1.41 1.40 1.28 1.18 1.14 1.22 1.17 0.99 0.84 0.77 0.73 0.69 0.66 0.62 0.58
0.47 0.54 0.64 0.63 0.69 0.85 0.96 0.97 0.94 0.95 1.01 1.08 1.12 1.18 1.21 1.27 1.40 1.43 1.50 1.59 1.67 1.73 1.84 1.80 1.71 1.57 1.39 1.32 1.38 1.37 1.42 1.54 1.47 1.45 1.48 1.30 1.08 0.92 0.83 0.79 0.73 0.67 0.62
0.51 0.53 0.51 0.55 0.60 0.71 0.82 0.82 0.82 0.83 0.86 0.87 1.00 1.08 1.12 1.16 1.26 1.32 1.33 1.46 1.59 1.68 1.72 1.70 1.66 1.57 1.51 1.46 1.45 1.43 1.49 1.61 1.68 1.57 1.52 1.43 1.34 1.21 1.05 0.94 0.82 0.76 0.72
0.35 0.39 0.36 0.38 0.43 0.53 0.59 0.59 0.65 0.72 0.77 0.81 0.91 0.94 0.97 0.92 0.96 1.03 1.03 1.22 1.39 1.58 1.65 1.69 1.60 1.48 1.42 1.43 1.40 1.40 1.47 1.66 1.69 1.72 1.72 1.58 1.43 1.24 1.13 1.04 0.93 0.85 0.81
0.20 0.26 0.28 0.31 0.35 0.37 0.47 0.47 0.48 0.59 0.69 0.73 0.80 0.82 0.90 0.91 0.86 0.82 0.81 0.89 1.03 1.16 1.36 1.50 1.54 1.46 1.38 1.37 1.44 1.52 1.52 1.61 1.71 1.65 1.58 1.64 1.56 1.45 1.26 1.08 1.09 1.06 0.95
0.17 0.19 0.22 0.29 0.29 0.27 0.32 0.32 0.43 0.61 0.63 0.62 0.60 0.73 0.86 0.92 0.95 0.96 0.84 0.83 0.84 0.88 0.99 1.18 1.33 1.34 1.32 1.34 1.43 1.50 1.53 1.57 1.48 1.53 1.50 1.60 1.59 1.47 1.29 1.22 1.27 1.13 1.05
0.17 0.21 0.22 0.29 0.27 0.20 0.24 0.28 0.37 0.50 0.56 0.52 0.53 0.65 0.80 0.92 0.96 0.99 0.94 0.99 0.96 0.85 0.82 0.89 1.09 1.20 1.22 1.35 1.52 1.63 1.69 1.65 1.57 1.56 1.50 1.53 1.48 1.35 1.25 1.22 1.29 1.16 1.05
0.17 0.21 0.24 0.25 0.22 0.17 0.18 0.25 0.36 0.49 0.55 0.54 0.51 0.59 0.74 0.83 0.95 0.99 0.94 1.04 1.04 0.85 0.77 0.87 0.92 1.02 1.15 1.28 1.47 1.65 1.70 1.68 1.62 1.57 1.42 1.29 1.23 1.28 1.30 1.24 1.21 1.19 1.06
0.18 0.19 0.21 0.21 0.20 0.21 0.21 0.22 0.29 0.37 0.46 0.54 0.53 0.58 0.77 0.84 0.89 0.86 0.87 1.07 1.16 1.02 0.77 0.76 0.84 0.99 1.10 1.24 1.46 1.62 1.85 1.85 1.62 1.55 1.41 1.28 1.26 1.35 1.49 1.38 1.20 1.10 1.02